SL-16 DEB, 22545

Orbit data source: Space-Track

SL-16 DEB, 22545 is space debris in LEO originally from a launch on Fri, 25 Dec 1992 UTC launched from the Tyuratam Missile And Space Complex (TTMTR). Debris objects in space refer to the collection of defunct objects orbiting the Earth. Examples of debris include non-operational satellites, rocket bodies, and fragments generated from explosions, collisions, or faulty payload assembly.

Loading next visibility...
Identifier
22545, 1992-093HF
Orbit
LEO
Country
Flag of CISCIS
Related business
Manufacturer
Unknown
Mission
Spacecraft
Bus & Motor
Unknown
Mass
Unknown
Launch date (UTC)
1992-12-25 (33 years ago)
Launch vehicle
Unknown
Launch site
Tyuratam Missile And Space Complex (TTMTR)
Object type
Payload
Rocket body
Debris
Shape & HBR
Unknown shape, 1.1 m
Radar Cross Section
Small (<0.1 m²)

Expand to show TLE details & history
Last TLE update: 2 days ago

TLE from 2 days ago
0 SL-16 DEB
1 22545U 92093HF  26131.22086574  .00001951  00000-0  20965-2 0  9998
2 22545  71.5627 207.4494 0387032 280.1652  75.6005 13.46468164617465
Epoch: 2026-05-11T05:18Z
TLE epoch observation values (Epoch: 2026-05-11T05:18:02.799Z)
Latitude
-0.00006°
Longitude
-101.075°
Altitude
1,026.434 km
Speed
7.369 km/s
True Right ascension
13h 49m 47s
True Declination
0° 00' 00"
Sunlit
Object was in full shadow at epoch
Visualization orbit readout
Latitude
Unknown
Longitude
Unknown
Altitude
Unknown
Speed
Unknown
Apparent Right ascension
Unknown
Apparent Declination
Unknown
Sunlit
N/A
Visualization observer readout
Local Sidereal Time
18:40:21
Azimuth
Unknown
Elevation
Unknown
Doppler factor
Unknown
Orbital elements
Apogee altitude
1,371.995 km
Perigee altitude
794.438 km
Semi-major axis
7,461.354 km
Eccentricity
0.0387
Inclination
71.5627°
RAAN
207.4494°
Arg. of periapsis
280.1652°
True anomaly
79.94435°
Mean anomaly
75.6005°
Eccentric anomaly
77.76768°
Mean motion
3.36757 °/min
Orbital period
106.9 mins
BSTAR
0.0020965
Loading maneuver chart data...
Computing Atmospheric mass density...
Loading historical data...
Loading historical data...
Loading historical data...
Loading historical data...
Loading historical data...
Loading historical data...
Loading historical data...

Documentation

Showing up to 5 results
|